Regional Weather Roundup
Issued by NWS

Home | Current Version | Previous Version | Graphics & Text | Print | Product List | Glossary On
Versions: 1 2 3 4 5 6 7 8 9 10 11 12 13 14 15 16 17 18 19 20 21 22 23 24 25 26 27 28 29 30 31 32 33 34 35 36 37 38 39 40 41 42 43 44 45 46 47 48 49 50
838
ASUS43 KDMX 281503
RWRIA

WEATHER ROUNDUP FOR IOWA
NATIONAL WEATHER SERVICE DES MOINES IA
1000 AM CDT SUN AUG 28 2016

NOTE: "FAIR" INDICATES FEW OR NO CLOUDS BELOW 12,000 FEET WITH NO
SIGNIFICANT WEATHER AND/OR OBSTRUCTIONS TO VISIBILITY.

* - THESE STATIONS ARE NOT NWS STATIONS...THUS NOT UNDER NWS
QUALITY CONTROL.  THEY ALSO DO NOT REPORT WEATHER SUCH
AS PRECIPITATION OR FOG.

IAZ001>003-012>014-020>022-031>034-043>046-281600-
   NORTHWEST IOWA

CITY           SKY/WX    TMP DP  RH WIND       PRES   REMARKS
CARROLL *      SUNNY     75  70  83 SE7       30.13S
CHEROKEE *     SUNNY     74  71  88 S8        30.11S
DENISON *      HAZE      77  72  83 VRB7      30.10S VSB<1/4
LE MARS *      CLOUDY    77  70  78 S10G16    30.09F
ORANGE CITY *  SUNNY     75  72  88 S9        30.11R
SHELDON *      SUNNY     75  72  88 S12       30.10R
SIOUX CITY     MOSUNNY   75  69  81 SE9       30.08S
SPENCER        SUNNY     73  68  84 S10       30.13S
STORM LAKE *   SUNNY     73  72  94 SE9       30.13S
$$

IAZ055>058-069>071-079>083-090>094-281600-
   SOUTHWEST IOWA

CITY           SKY/WX    TMP DP  RH WIND       PRES   REMARKS
ATLANTIC *     SUNNY     77  72  83 S3        30.13R
AUDUBON *      SUNNY     77  72  83 SE5       30.14S
CLARINDA *       N/A     79  73  83 MISG      30.15R HX  82
COUNCIL BLFS * SUNNY     75  72  88 SE7       30.12R
CRESTON *      SUNNY     79  73  83 SE7       30.16R HX  82
HARLAN  *      MOSUNNY   77  73  88 VRB5      30.16R
LAMONI         SUNNY     79  74  84 SE7       30.15R HX  82
RED OAK *      SUNNY     79  73  83 SE3       30.12R HX  82
SHENANDOAH *   SUNNY     79 -31   1 SE5       30.12R
$$

IAZ047>049-059>061-072>074-084-281600-
   CENTRAL IOWA

CITY           SKY/WX    TMP DP  RH WIND       PRES   REMARKS
AMES           SUNNY     77  73  87 SE7       30.15S
ANKENY *         N/A    N/A N/A N/A MISG        N/A
BOONE *        SUNNY     75  72  88 SE8       30.15S
CHARITON *       N/A     81  75  83 MISG      30.15S HX  86
DES MOINES     MOSUNNY   79  72  79 SE7       30.14S HX  82
GRINNELL*      MOSUNNY   78  70  78 SE6       30.18R HX  80
KNOXVILLE *    PTSUNNY   75  72  88 SE3       30.15R
MARSHALLTOWN   PTSUNNY   76  72  87 SE9       30.16S
NEWTON *       MOSUNNY   77  73  88 SE9       30.15S
PERRY *          N/A     74  74 100 SE6       30.15S
$$

IAZ004>006-015-016-023>025-035-036-281600-
   NORTH CENTRAL IOWA

CITY           SKY/WX    TMP DP  RH WIND       PRES   REMARKS
ALGONA *       SUNNY     73  70  88 S7        30.15R
ESTHERVILLE    MOSUNNY   68  68 100 S9        30.14S
FORT DODGE *   MOSUNNY   75  70  83 S8        30.15S
MASON CITY     SUNNY     73  69  87 SE10      30.18S
FOREST CITY *    N/A    N/A N/A N/A MISG        N/A
WEBSTER CITY * SUNNY     75  72  88 SE9       30.13S
IOWA FALLS *   PTSUNNY   76  71  84 SE7       30.18S
$$

IAZ007>011-017>019-026>030-037>042-050>054-066-281600-
   NORTHEAST IOWA

CITY           SKY/WX    TMP DP  RH WIND       PRES   REMARKS
CEDAR RAPIDS   SUNNY     76  74  93 E7        30.17S
CHARLES CITY * MOSUNNY   73  72  94 SE7       30.19S
CLINTON *      SUNNY     77  73  87 E7        30.19
DECORAH *      SUNNY     73  70  88 VRB6      30.19S
DUBUQUE        PTSUNNY   75  70  84 SE8       30.21F
MONTICELLO *   MOSUNNY   75  72  88 E7        30.19S
OELWEIN *      MOSUNNY   75  72  88 E8        30.20R
WATERLOO       PTSUNNY   75  68  78 SE9       30.17R
$$

IAZ064-065-067-068-078-281600-
   EAST CENTRAL IOWA

CITY           SKY/WX    TMP DP  RH WIND       PRES   REMARKS
DAVENPORT      SUNNY     79  72  79 SE7       30.18F HX  82
IOWA CITY      SUNNY     77  72  84 E5        30.18S
MT. PLEASANT * MOSUNNY   84  77  78 CALM      30.16S HX  94
MUSCATINE *    SUNNY     79  72  78 E6        30.16F HX  82
QUAD CITIES    SUNNY     79  73  82 E6        30.17F HX  82
$$

IAZ062-063-075>077-085>089-095>099-281600-
   SOUTHEAST IOWA

CITY           SKY/WX    TMP DP  RH WIND       PRES   REMARKS
BURLINGTON     SUNNY     79  74  84 S5        30.17S HX  82
FAIRFIELD *    SUNNY     81  73  78 CALM      30.16S HX  85
FORT MADISON * SUNNY     81  77  89 SE6       30.17S HX  88
KEOKUK *       CLOUDY    81  73  78 SE8       30.16R HX  85
OSKALOOSA *      N/A     78  74  86 SE3       30.17S HX  80
CENTERVILLE *    N/A     81  75  83 CALM      30.17S HX  86
OTTUMWA        SUNNY     79  72  79 SE5       30.16S HX  82
WASHINGTON *   SUNNY     81  73  78 E9        30.17F HX  85
$$

ABBREVIATIONS USED IN REMARKS
   TC - TEMPERATURES IN CELSIUS
  WCI - WIND CHILL INDEX
   HX - HEAT INDEX
  VSB - VISIBILITY
$$





USA.gov is the U.S. government's official web portal to all federal, state and local government web resources and services.